Home   Weather   Shanghai   Past weeks
Flag for China

Past Weather in Shanghai, Shanghai Municipality, China — Yesterday and Last 2 Weeks

Now
50 °F

Passing clouds.


Feels Like: 45 °F
Forecast: 53 / 46 °F
Wind: 15 mph from Northeast

Location: Shanghai Hongqiao Airport

Current Time: Mar 21, 2019 at 8:37:31 pm

Latest Report: Mar 21, 2019 at 8:00 pm


Visibility: N/A

Pressure: 30.09 "Hg

Humidity: 82%

Dew Point: 45 °F

Location of ShanghaiLocation

Past Weather in Shanghai — Graph

°F

Shanghai Temperature Yesterday

Maximum temperature yesterday: 81 °F (at 3:30 pm)
Minimum temperature yesterday: 54 °F (at 12:00 am)
Average temperature yesterday: 66 °F

High & Low Weather Summary for the Past Weeks

 TemperatureHumidityPressure
High81 °F (Mar 20, 3:30 pm)100% (Mar 9, 4:00 am)30.33 "Hg (Mar 9, 4:00 am)
Low37 °F (Mar 8, 4:00 am)18% (Mar 12, 2:00 pm)29.53 "Hg (Mar 20, 3:30 pm)
Average54 °F67%30.10 "Hg
* Reported Mar 6 7:00 pm — Mar 21 7:00 pm, Shanghai. Weather by CustomWeather, © 2019

Note: Actual official high and low records may vary slightly from our data, if they occured in-between our weather recording intervals... More about our weather records

Advertising

Shanghai Weather History for the Previous 24 Hours

Scroll right to see more
 ConditionsComfort  
Time TempWeatherWind HumidityBarometerVisibility
7:00 pm
Thu, Mar 21
50 °FLight rain. Passing clouds.13 mph88%30.07 "HgN/A
6:30 pm50 °FLight rain. Passing clouds.10 mph88%30.07 "HgN/A
6:00 pm50 °FLight rain. Partly sunny.13 mph88%30.07 "Hg5 mi
5:30 pm50 °FLight rain. Partly sunny.13 mph88%30.07 "Hg5 mi
5:00 pm50 °FLight rain. Partly sunny.13 mph88%30.04 "Hg5 mi
4:30 pm52 °FPartly sunny.15 mph88%30.01 "Hg5 mi
4:00 pm54 °FPartly sunny.17 mph77%29.98 "Hg5 mi
3:30 pm54 °FPartly sunny.17 mph82%29.98 "Hg5 mi
3:00 pm54 °FPartly sunny.17 mph82%29.98 "HgN/A
2:30 pm55 °FLight rain. Partly sunny.17 mph82%29.95 "Hg5 mi
2:00 pm59 °FLight rain. Fog.10 mph82%29.92 "Hg2 mi
1:30 pm59 °FLight rain. Fog.10 mph82%29.95 "Hg2 mi
1:00 pm59 °FLight rain. Fog.15 mph82%29.98 "Hg2 mi
12:30 pm61 °FLight rain. Fog.15 mph72%29.98 "Hg3 mi
12:00 pm63 °FClear.13 mph68%29.98 "Hg4 mi
11:30 am63 °FClear.17 mph64%29.95 "Hg4 mi
11:00 am64 °FClear.17 mph56%29.92 "Hg4 mi
10:30 am64 °FClear.13 mph56%29.89 "Hg4 mi
10:00 am64 °FClear.8 mph64%29.92 "Hg4 mi
9:30 am63 °FClear.3 mph68%29.92 "Hg4 mi
8:30 am61 °FClear.8 mph72%29.92 "Hg4 mi
8:00 am61 °FClear.6 mph72%29.89 "Hg4 mi
7:30 am59 °FClear.3 mph82%29.89 "Hg4 mi
7:00 am59 °FClear.3 mph82%29.89 "Hg4 mi
6:30 am57 °FClear.8 mph88%29.86 "Hg5 mi
6:00 am57 °FClear.3 mph88%29.89 "Hg5 mi
5:30 am57 °FClear.3 mph88%29.86 "Hg5 mi
5:00 am57 °FClear.3 mph88%29.83 "Hg5 mi
4:30 am59 °FClear.3 mph82%29.86 "Hg5 mi
4:00 am59 °FClear.6 mph88%29.83 "Hg5 mi
3:30 am59 °FClear.8 mph88%29.83 "Hg5 mi
3:00 am61 °FPassing clouds.10 mph88%29.83 "Hg5 mi
2:30 am63 °FPassing clouds.8 mph83%29.83 "Hg5 mi
2:00 am63 °FPassing clouds.13 mph83%29.80 "Hg5 mi
1:30 am64 °FClear.10 mph83%29.80 "Hg5 mi
1:00 am64 °FPassing clouds.13 mph88%29.80 "HgN/A
12:30 am66 °FPassing clouds.10 mph83%29.80 "HgN/A
12:00 am66 °FPassing clouds.10 mph88%29.80 "HgN/A
11:30 pm
Wed, Mar 20
68 °FPassing clouds.10 mph83%29.77 "HgN/A
11:00 pm68 °FPassing clouds.8 mph83%29.77 "HgN/A
10:30 pm68 °FClear.8 mph83%29.74 "Hg10 mi
10:00 pm70 °FPassing clouds.6 mph73%29.74 "HgN/A
9:30 pm70 °FClear.6 mph73%29.74 "Hg10 mi
9:00 pm70 °FPassing clouds.6 mph73%29.71 "HgN/A
8:30 pm72 °FPassing clouds.6 mph73%29.71 "HgN/A
8:00 pm72 °FClear.6 mph73%29.68 "Hg10 mi
Weather by CustomWeather, © 2019

See weather overview